This is the latest recevied weather packets stored in our database for station/object KI7MOQ. If no packets are shown the sender has not sent any weather packets the latest 10 day(s).
| Time | Temp. | Humidity | Pressure | Rain* | Wind** | Luminosity | Snow |
|---|---|---|---|---|---|---|---|
| 1777664000 | 19.44° C | 56% | 1018.8 hPa | 0 mm | - | 102 W/m² | - |
| 1777663697 | 19.44° C | 59% | 1018.7 hPa | 0 mm | - | 121 W/m² | - |
| 1777663394 | 18.89° C | 60% | 1018.6 hPa | 0 mm | - | 193 W/m² | - |
| 1777663091 | 18.89° C | 60% | 1018.9 hPa | 0 mm | - | 79 W/m² | - |
| 1777662788 | 19.44° C | 58% | 1018.9 hPa | 0 mm | - | 134 W/m² | - |
| 1777662480 | 18.89° C | 60% | 1019 hPa | 0 mm | - | 295 W/m² | - |
| 1777662175 | 18.89° C | 60% | 1018.8 hPa | 0 mm | - | 309 W/m² | - |
| 1777661871 | 18.33° C | 60% | 1019 hPa | 0 mm | - | 461 W/m² | - |
| 1777661567 | 18.89° C | 61% | 1019.3 hPa | 0 mm | - | 428 W/m² | - |
| 1777661263 | 18.33° C | 61% | 1019.1 hPa | 0 mm | - | 467 W/m² | - |
| 1777660959 | 18.33° C | 62% | 1019.1 hPa | 0 mm | - | 443 W/m² | - |
| 1777660655 | 18.33° C | 62% | 1019 hPa | 0 mm | - | 445 W/m² | - |
| 1777660352 | 17.78° C | 62% | 1019.2 hPa | 0 mm | - | 347 W/m² | - |
| 1777660049 | 17.78° C | 62% | 1019.1 hPa | 0 mm | - | 205 W/m² | - |
| 1777659745 | 17.78° C | 63% | 1019.1 hPa | 0 mm | - | 68 W/m² | - |
| 1777659442 | 17.78° C | 62% | 1019.3 hPa | 0 mm | - | 67 W/m² | - |
| 1777659140 | 17.22° C | 64% | 1019.2 hPa | 0 mm | - | 189 W/m² | - |
| 1777658838 | 16.67° C | 67% | 1019.1 hPa | 0 mm | - | 83 W/m² | - |
| 1777658533 | 16.67° C | 66% | 1019.3 hPa | 0 mm | - | 125 W/m² | - |
| 1777658230 | 16.67° C | 67% | 1019.2 hPa | 0 mm | - | 82 W/m² | - |
| 1777657927 | 16.11° C | 67% | 1019.3 hPa | 0 mm | - | 109 W/m² | - |
| 1777657623 | 16.11° C | 68% | 1019.2 hPa | 0 mm | - | 74 W/m² | - |
| 1777657321 | 16.11° C | 68% | 1019.3 hPa | 0 mm | - | 75 W/m² | - |
| 1777657019 | 16.11° C | 69% | 1019.3 hPa | 0 mm | - | 68 W/m² | - |
| 1777656715 | 16.11° C | 68% | 1019.3 hPa | 0 mm | - | 68 W/m² | - |
* Rain latest hour (hover to see other rain measurements)
** Current wind speed in m/s (hover to see current wind gust speed)